Probability
3 3 3 3 3 4 4 2 1 0 0 0 1 2 1 0 1 1 1 0 0 0 0 0 0 0 0 0 0 0 0 0 0 0 0 0 0 0 0 0 0 0 0
3 3 3 3 3 3 3 3 2 1 0 0 1 2 2 1 0 0 0 0 0 0 0 0 0 0 0 0 0 0 0 0 0 0 0 0 0 0 0 0 0 0 0
3 3 3 3 3 3 3 3 2 1 0 0 0 1 2 2 1 0 0 0 0 0 0 0 0 0 0 0 0 0 0 0 0 0 0 0 0 0 0 0 0 0 0
3 3 3 3 3 3 3 1 1 2 1 0 0 1 3 3 1 1 0 0 0 0 0 0 0 0 0 0 0 0 0 0 0 0 0 0 0 0 0 0 0 0 0
3 3 3 3 3 3 2 1 1 2 2 1 0 2 3 3 3 2 1 0 0 0 0 0 0 0 0 0 0 0 0 0 0 0 0 0 0 0 0 0 0 0 0
3 3 3 3 3 3 2 1 0 1 2 1 0 1 2 3 3 3 2 1 0 0 0 1 1 1 0 0 0 0 0 0 0 0 0 0 0 0 0 0 0 0 0
2 3 3 3 3 3 2 1 0 0 1 1 1 0 1 3 3 3 3 1 0 0 0 1 2 1 0 0 0 0 0 0 0 0 0 0 0 0 0 1 1 0 0
1 2 3 3 2 2 2 2 1 0 0 1 1 0 1 2 3 3 2 1 0 0 0 1 2 1 0 0 1 1 1 0 0 0 0 0 0 0 0 1 2 1 1
0 1 1 2 1 0 1 2 1 1 0 0 0 0 0 1 1 2 1 1 0 0 0 0 1 1 0 0 1 2 1 0 0 0 0 0 0 0 0 2 3 3 2
0 0 1 1 1 1 0 1 1 1 1 0 0 0 0 0 1 1 1 0 0 0 0 0 0 0 0 0 1 1 0 0 0 0 0 0 0 0 0 2 3 3 3
0 0 0 1 1 1 0 0 0 0 0 0 0 0 0 0 0 0 0 0 0 0 0 0 0 0 0 0 0 0 0 0 0 0 0 0 0 0 0 1 3 3 3
0 0 0 0 1 1 0 0 0 0 0 0 0 0 0 0 0 0 0 0 0 0 0 0 0 0 0 0 0 0 0 0 0 0 0 0 0 0 0 1 3 3 3
1 0 0 0 0 0 0 0 0 0 0 0 0 0 0 0 0 0 0 0 0 0 0 0 0 0 0 0 0 0 0 0 0 0 0 0 0 1 1 2 3 3 3
2 1 0 0 0 0 0 0 0 1 0 0 0 0 0 0 0 0 0 0 0 0 0 0 0 0 0 0 0 0 0 0 0 0 0 0 0 0 1 2 3 3 3
3 2 1 0 0 0 0 0 0 1 1 0 0 0 0 0 0 0 0 0 0 0 0 0 0 0 0 0 0 0 0 0 0 0 0 0 0 0 0 1 2 3 3
3 2 1 0 0 0 0 0 0 0 1 0 0 0 0 0 0 0 0 0 0 0 0 0 0 0 0 0 0 0 0 0 0 0 0 0 0 0 0 0 1 1 2
3 2 1 0 0 0 0 0 0 0 0 0 0 0 0 0 0 0 0 0 0 0 0 0 0 0 0 0 0 0 0 0 0 0 0 0 0 0 0 0 0 0 1
3 2 1 0 0 0 0 0 0 0 0 0 0 0 0 0 0 0 0 0 0 0 0 0 0 0 0 0 0 0 0 0 0 0 0 0 0 0 0 0 0 0 0
3 2 1 0 0 0 0 0 0 0 0 0 0 0 0 0 0 0 0 0 0 0 0 0 0 0 0 0 0 0 0 0 0 0 0 0 0 0 0 0 0 0 0
2 1 0 0 0 0 0 0 0 0 0 0 0 0 0 0 0 0 0 0 0 0 0 0 0 0 0 0 0 0 0 0 0 0 0 0 0 0 0 0 0 0 0
2 1 0 0 0 0 0 0 0 0 0 0 0 0 0 0 0 0 0 0 0 0 0 0 0 0 0 0 0 0 0 0 0 0 0 0 0 0 0 0 0 0 0
1 0 0 0 0 0 0 0 0 0 0 0 0 0 0 0 0 0 0 0 0 0 0 0 0 0 0 0 0 0 0 0 0 0 0 0 0 0 0 0 0 0 0
0 0 0 0 0 0 0 0 0 0 0 0 0 0 0 0 0 0 0 0 0 0 0 0 0 0 0 0 0 0 0 0 0 0 0 0 0 0 0 0 0 0 0
0 0 0 0 0 0 0 0 0 0 0 0 0 0 0 0 0 0 0 0 0 0 0 0 0 0 0 0 0 0 0 0 0 0 0 0 0 0 0 0 0 0 0
0 0 0 0 0 0 0 0 0 0 0 0 0 0 0 0 0 0 0 0 0 0 0 0 0 0 0 0 0 0 0 0 0 0 0 0 0 0 0 0 0 0 0
0 0 0 0 0 0 0 0 0 0 0 0 0 0 0 0 0 0 0 0 0 0 0 0 0 0 0 0 0 0 0 0 0 0 0 0 0 0 0 0 0 0 0
Wind_Speed
1 1 0 4 5 7 7 7 7 8 8 8 9 9 9 9 10 10 10 10 10 10 11 11 11 11 11 11 11 12 12 12 12 12 12 11 11 11 11 10 9 6 11
1 1 2 4 6 7 7 7 7 7 8 8 8 8 8 8 9 9 9 9 9 9 10 10 10 11 11 11 11 11 11 12 12 12 12 10 10 11 11 11 10 7 11
2 2 2 4 6 6 6 6 6 6 7 7 7 7 7 8 8 8 8 8 8 9 9 9 9 10 10 11 11 11 11 11 11 11 10 6 6 10 10 10 10 10 9
3 2 2 4 6 6 6 6 6 6 6 7 7 7 7 8 8 8 8 8 8 8 8 8 9 9 9 10 10 10 10 11 11 10 5 4 4 8 9 9 9 9 9
3 2 2 5 6 6 6 6 6 6 6 7 7 7 7 7 7 7 7 7 7 7 8 8 8 8 8 9 9 9 10 10 10 7 4 4 3 6 8 8 7 8 8
2 2 2 5 5 6 6 6 6 6 6 6 6 6 6 7 7 7 7 6 6 7 7 8 8 8 8 8 8 8 9 9 7 4 4 3 3 5 6 7 7 7 6
2 2 2 4 5 5 5 5 5 5 5 5 5 6 6 6 6 6 6 6 6 6 6 7 7 7 7 7 7 7 8 8 5 3 3 3 3 5 5 5 6 6 6
3 2 2 3 4 4 4 5 4 5 5 5 4 5 5 6 6 6 6 5 5 5 6 6 6 6 6 6 6 7 7 6 5 4 3 3 4 4 4 4 4 5 5
3 2 2 2 2 3 4 4 4 4 4 4 4 4 5 5 5 5 5 5 5 5 5 5 5 5 5 5 6 6 6 6 4 2 3 2 4 4 4 3 3 3 4
2 2 2 2 2 2 2 4 4 4 4 4 5 5 5 5 5 5 5 5 5 5 5 5 5 4 4 5 5 6 6 5 3 2 2 2 4 4 4 3 3 3 3
1 1 1 2 2 2 2 2 3 3 4 4 4 5 5 3 2 3 4 5 5 5 5 5 5 5 5 5 5 5 5 2 2 2 2 4 4 4 4 4 4 3 3
2 1 1 1 2 2 1 2 1 2 2 2 2 3 2 2 2 3 5 5 5 5 5 6 6 6 5 2 3 4 2 2 2 2 3 6 5 5 5 4 4 4 5
4 2 2 2 1 2 1 1 1 1 1 1 2 2 2 2 2 2 2 3 3 4 3 4 4 3 2 2 2 1 1 1 1 2 3 6 6 6 6 5 5 5 5
3 3 3 3 2 1 1 1 1 1 1 1 1 1 2 1 1 1 1 1 1 1 2 2 1 2 2 2 2 2 1 1 1 1 3 6 6 6 6 6 6 6 6
4 4 4 3 3 2 2 1 2 1 1 1 1 1 2 1 1 1 1 1 1 1 1 1 1 2 2 2 2 2 2 1 1 1 2 6 7 7 7 7 7 7 7
5 5 4 4 4 4 3 2 2 2 2 2 1 1 2 2 1 1 0 0 0 0 0 0 1 1 1 1 2 2 2 2 2 2 2 3 6 7 7 7 7 8 8
5 4 5 5 4 4 4 3 3 2 2 2 2 2 2 2 2 1 1 0 1 0 0 0 1 1 1 2 2 3 2 2 2 3 2 2 2 5 7 7 7 8 9
4 5 5 4 4 5 4 4 3 2 2 2 2 2 2 2 2 1 1 1 1 0 0 0 0 1 1 2 2 2 2 2 3 3 2 2 1 2 4 7 7 8 9
5 5 4 4 5 5 4 3 3 2 2 2 2 2 2 2 2 2 1 1 1 0 0 0 0 0 1 2 2 2 3 3 2 2 2 2 2 2 2 5 7 8 9
4 4 4 4 4 4 3 2 2 2 2 2 2 2 3 2 2 2 2 1 1 1 0 0 0 1 1 1 2 3 3 3 2 2 2 2 1 2 2 3 3 5 8
3 4 4 4 4 3 2 2 2 2 2 2 2 2 3 3 3 2 2 2 2 1 1 1 1 0 1 1 1 3 3 2 2 2 1 1 1 2 2 2 2 2 3
4 4 4 5 4 4 3 2 2 2 2 2 2 2 2 3 3 3 3 3 2 2 2 2 1 1 0 0 0 1 3 3 2 1 1 1 2 2 2 3 3 3 3
3 4 4 5 4 4 3 2 1 1 0 1 1 2 2 3 3 3 3 3 2 2 2 3 2 2 2 1 1 1 1 3 4 2 1 1 1 2 2 2 3 4 4
3 3 3 3 3 3 4 3 3 3 3 3 2 2 2 2 2 2 2 3 3 2 2 3 3 2 2 2 1 1 2 1 2 4 3 1 2 2 3 3 3 3 3
2 2 2 2 2 3 3 4 4 3 3 2 1 2 2 2 2 2 2 2 3 2 3 3 2 2 2 2 2 1 1 1 2 3 5 4 3 3 3 3 3 3 3
1 0 0 1 1 1 2 3 4 4 3 3 3 3 2 2 2 2 2 2 2 2 3 3 2 3 2 2 2 2 2 2 2 3 4 5 5 4 4 3 2 2 2
Wind_Direction
274 288 189 114 113 109 104 100 106 106 103 99 95 92 89 88 86 83 80 79 77 76 74 72 70 70 70 68 67 68 66 63 58 56 56 55 58 59 60 60 56 49 55
170 186 120 115 116 109 104 101 102 110 109 105 100 96 92 88 86 83 80 77 77 77 75 72 71 71 70 67 68 69 67 65 59 54 51 48 46 53 57 57 55 54 55
110 112 108 107 116 112 107 106 104 110 113 109 104 100 96 91 87 84 82 77 75 75 74 73 72 72 71 68 68 69 68 65 59 54 47 35 36 46 52 52 50 49 51
109 102 96 106 109 108 108 109 108 104 114 112 107 104 99 93 90 86 83 79 76 74 74 73 73 74 71 70 68 69 66 64 59 52 42 28 30 44 47 49 48 45 45
101 96 96 107 110 106 102 105 107 104 108 111 106 103 98 93 92 87 84 81 77 74 73 71 72 73 71 71 69 67 65 62 55 46 35 26 24 41 44 45 46 43 41
102 97 105 107 112 110 106 103 100 97 100 110 107 101 97 92 89 86 85 82 78 75 73 71 73 71 68 67 66 65 61 58 50 37 28 18 17 35 41 43 41 40 40
112 92 108 110 107 110 110 108 104 97 92 96 102 100 96 89 86 85 82 81 80 78 74 72 72 71 67 65 63 62 58 51 47 33 17 7 14 27 31 35 34 33 37
123 92 85 115 111 108 110 105 98 94 86 82 90 99 98 92 85 80 79 79 78 77 74 72 70 68 67 64 61 56 53 48 41 25 7 356 7 14 19 23 27 26 25
113 99 78 82 94 103 102 100 90 83 81 76 78 85 86 82 79 70 69 74 73 70 67 67 67 64 62 58 53 49 46 40 37 12 354 339 354 360 2 6 10 12 9
99 102 93 87 77 76 85 93 89 81 77 72 69 72 75 71 66 60 58 63 65 61 56 55 56 56 53 51 46 42 39 34 23 359 338 329 349 348 350 351 352 352 352
123 104 110 111 103 91 90 81 77 72 71 68 66 68 70 65 61 56 55 55 55 55 50 46 43 43 40 38 36 34 32 23 8 349 326 336 336 331 330 334 333 334 331
196 195 159 143 143 128 111 89 78 67 67 70 76 72 66 66 64 61 57 52 49 48 44 42 37 34 31 20 17 23 22 9 5 342 335 335 327 320 316 314 314 316 318
198 191 179 172 164 141 135 127 103 79 68 71 84 85 80 65 66 61 60 48 45 43 42 36 31 24 21 12 4 4 2 2 346 327 329 331 324 318 311 306 304 304 305
200 202 188 172 174 179 169 163 153 133 123 111 93 93 101 89 67 62 65 48 46 38 38 30 26 13 14 11 3 352 346 341 322 314 323 333 328 318 311 306 303 301 297
207 204 194 179 185 191 178 194 170 173 180 174 143 136 131 130 127 82 59 55 42 48 49 20 12 3 358 353 344 347 328 311 302 306 318 332 328 319 311 305 300 299 295
211 209 193 189 190 192 196 205 192 191 188 179 172 178 161 151 156 150 143 40 9 24 30 28 353 344 335 338 332 323 313 307 295 295 297 318 330 327 318 312 307 303 300
211 205 198 197 195 196 203 213 202 195 187 187 191 181 175 168 170 162 184 234 295 287 47 44 6 2 346 342 331 324 317 311 299 295 297 295 313 332 331 321 316 312 306
207 207 207 202 201 203 204 209 202 190 196 200 197 180 189 185 173 164 186 228 268 295 135 86 14 360 340 331 317 313 309 300 290 290 291 295 305 319 330 331 327 322 315
206 207 205 205 204 207 204 202 195 189 199 206 194 182 198 193 182 173 193 217 191 240 234 182 10 296 302 315 306 300 298 288 278 285 279 285 291 301 305 324 326 325 317
206 204 200 205 208 203 191 189 186 194 206 211 199 198 199 195 190 183 184 196 170 171 232 161 254 308 267 299 314 307 292 282 274 260 264 280 289 294 302 306 311 317 317
197 197 200 204 207 189 180 186 193 208 208 210 206 201 199 193 191 189 187 187 181 195 216 190 184 258 316 348 342 323 306 275 267 255 252 259 286 290 288 292 294 297 304
203 204 206 214 207 198 192 182 190 194 204 203 201 201 197 187 190 196 193 191 187 194 202 188 173 164 259 141 89 325 323 323 317 292 274 249 274 286 289 294 292 294 296
218 218 219 217 208 201 187 151 132 132 145 191 207 212 206 190 189 196 199 191 190 192 204 200 187 185 214 240 211 187 239 277 315 300 277 274 278 285 289 293 293 292 297
246 246 234 221 210 198 178 174 180 197 220 224 211 215 219 194 191 187 195 194 190 195 203 207 197 205 193 214 234 236 238 233 269 301 300 290 298 292 294 298 297 299 297
246 237 222 218 214 200 191 190 196 221 233 231 212 220 227 207 196 195 200 199 194 196 204 204 199 201 203 201 202 206 230 254 236 253 285 300 307 287 282 279 281 288 298
10 358 232 199 229 207 202 203 202 219 229 228 228 222 224 214 205 202 199 198 198 196 203 207 202 201 205 208 210 206 208 216 222 230 261 283 290 288 285 270 263 266 277